| time (UTC) | temp C | wind direction | speed KPH | gust KPH | rain 1hr cm | rain 24hr cm | rain mn cm | humidity % | barometer mb |
| 20260906040306 | 25 | 245 | 0.0 | 6.4 | 0.00 | 0.05 | 0.03 | 80 | 999.7 |
| 20260906035807 | 25 | 213 | 3.2 | 6.4 | 0.00 | 0.05 | 0.03 | 80 | 999.3 |
| 20260906035306 | 25 | 234 | 1.6 | 4.8 | 0.00 | 0.05 | 0.03 | 79 | 999.3 |
| 20260906034805 | 25 | 204 | 1.6 | 4.8 | 0.00 | 0.05 | 0.03 | 78 | 999.3 |
| 20260906034306 | 26 | 272 | 1.6 | 4.8 | 0.00 | 0.05 | 0.03 | 76 | 999.0 |
| 20260906033806 | 26 | 246 | 0.0 | 4.8 | 0.00 | 0.05 | 0.03 | 76 | 999.3 |
| 20260906033307 | 26 | 199 | 0.0 | 4.8 | 0.00 | 0.05 | 0.03 | 76 | 999.0 |
| 20260906032805 | 25 | 212 | 0.0 | 4.8 | 0.00 | 0.08 | 0.03 | 76 | 999.3 |
| 20260906032306 | 25 | 139 | 0.0 | 4.8 | 0.00 | 0.08 | 0.00 | 77 | 999.0 |
| 20260906031806 | 25 | 223 | 1.6 | 6.4 | 0.00 | 0.08 | 0.00 | 76 | 999.0 |
| 20260906031306 | 26 | 239 | 3.2 | 6.4 | 0.00 | 0.08 | 0.00 | 75 | 998.6 |
| 20260906030806 | 26 | 215 | 3.2 | 6.4 | 0.00 | 0.08 | 0.00 | 73 | 998.6 |
| 20260906030306 | 26 | 218 | 0.0 | 6.4 | 0.00 | 0.08 | 0.00 | 72 | 999.0 |
| 20260906025806 | 26 | 73 | 1.6 | 8.0 | 0.00 | 0.08 | 0.00 | 73 | 999.0 |
| 20260906025306 | 26 | 84 | 3.2 | 9.7 | 0.00 | 0.08 | 0.00 | 73 | 999.0 |
| 20260906024806 | 26 | 106 | 9.7 | 9.7 | 0.00 | 0.08 | 0.00 | 73 | 999.0 |
| 20260906024306 | 26 | 119 | 4.8 | 11.3 | 0.00 | 0.08 | 0.00 | 72 | 999.3 |
| 20260906023806 | 26 | 215 | 3.2 | 11.3 | 0.00 | 0.08 | 0.00 | 73 | 999.3 |
| 20260906023306 | 26 | 83 | 9.7 | 9.7 | 0.00 | 0.08 | 0.00 | 73 | 999.3 |
| 20260906022806 | 26 | 149 | 1.6 | 9.7 | 0.00 | 0.08 | 0.00 | 73 | 999.3 |
| 20260906022307 | 26 | 121 | 6.4 | 9.7 | 0.00 | 0.08 | 0.00 | 72 | 999.3 |
| 20260906021806 | 27 | 227 | 3.2 | 9.7 | 0.00 | 0.08 | 0.00 | 72 | 999.3 |
| 20260906021306 | 27 | 264 | 0.0 | 12.9 | 0.00 | 0.08 | 0.00 | 72 | 999.0 |
| 20260906020806 | 27 | 160 | 0.0 | 12.9 | 0.00 | 0.08 | 0.00 | 72 | 999.0 |
| 20260906020305 | 27 | 325 | 1.6 | 11.3 | 0.00 | 0.08 | 0.00 | 73 | 999.0 |
| 20260906015806 | 27 | 334 | 1.6 | 8.0 | 0.00 | 0.08 | 0.00 | 73 | 999.0 |
| 20260906015306 | 27 | 76 | 4.8 | 9.7 | 0.00 | 0.08 | 0.00 | 74 | 999.3 |
| 20260906014806 | 26 | 208 | 4.8 | 9.7 | 0.00 | 0.08 | 0.00 | 74 | 999.0 |
| 20260906014304 | 27 | 54 | 6.4 | 19.3 | 0.00 | 0.08 | 0.00 | 74 | 999.0 |
| 20260906013806 | 27 | 56 | 3.2 | 19.3 | 0.00 | 0.08 | 0.00 | 74 | 999.3 |
| 20260906013306 | 27 | 58 | 11.3 | 19.3 | 0.00 | 0.08 | 0.00 | 73 | 999.0 |
| 20260906012806 | 28 | 49 | 12.9 | 19.3 | 0.00 | 0.08 | 0.00 | 67 | 998.6 |
| 20260906012306 | 29 | 47 | 6.4 | 8.0 | 0.00 | 0.08 | 0.00 | 62 | 998.6 |
| 20260906011806 | 29 | 4 | 3.2 | 6.4 | 0.00 | 0.08 | 0.00 | 62 | 998.6 |
| 20260906011306 | 29 | 23 | 1.6 | 4.8 | 0.00 | 0.08 | 0.00 | 62 | 998.6 |
| 20260906010806 | 29 | 309 | 0.0 | 3.2 | 0.00 | 0.08 | 0.00 | 62 | 998.6 |
| 20260906010306 | 30 | 292 | 3.2 | 3.2 | 0.00 | 0.08 | 0.00 | 61 | 998.6 |
| 20260906005806 | 30 | 268 | 0.0 | 4.8 | 0.00 | 0.08 | 0.00 | 61 | 998.3 |
| 20260906005306 | 30 | 260 | 0.0 | 4.8 | 0.00 | 0.08 | 0.00 | 60 | 998.3 |
| 20260906004806 | 30 | 322 | 3.2 | 6.4 | 0.00 | 0.08 | 0.00 | 61 | 998.3 |
| 20260906004306 | 30 | 287 | 3.2 | 6.4 | 0.00 | 0.08 | 0.00 | 61 | 998.6 |
| 20260906003805 | 30 | 280 | 3.2 | 4.8 | 0.00 | 0.08 | 0.00 | 61 | 998.3 |
| 20260906003306 | 30 | 269 | 1.6 | 4.8 | 0.00 | 0.08 | 0.00 | 59 | 998.6 |
| 20260906002806 | 30 | 274 | 0.0 | 4.8 | 0.00 | 0.08 | 0.00 | 58 | 998.6 |
| 20260906002306 | 31 | 298 | 3.2 | 6.4 | 0.00 | 0.08 | 0.00 | 57 | 998.3 |
| 20260906001806 | 30 | 9 | 0.0 | 6.4 | 0.00 | 0.08 | 0.00 | 57 | 999.0 |
| 20260906001306 | 30 | 4 | 3.2 | 6.4 | 0.00 | 0.08 | 0.00 | 57 | 998.6 |
| 20260906000806 | 30 | 315 | 0.0 | 4.8 | 0.00 | 0.08 | 0.00 | 57 | 999.0 |
| 20260906000305 | 31 | 224 | 0.0 | 3.2 | 0.00 | 0.08 | 0.00 | 57 | 999.0 |
| 20260905235806 | 31 | 333 | 0.0 | 3.2 | 0.00 | 0.08 | 0.08 | 57 | 998.6 |
| 20260905235307 | 31 | 251 | 1.6 | 3.2 | 0.00 | 0.08 | 0.08 | 57 | 999.0 |
| 20260905234805 | 31 | 322 | 0.0 | 3.2 | 0.00 | 0.08 | 0.08 | 57 | 999.0 |
| 20260905234306 | 31 | 243 | 0.0 | 4.8 | 0.00 | 0.08 | 0.08 | 57 | 999.0 |
| 20260905233805 | 31 | 1 | 0.0 | 4.8 | 0.00 | 0.08 | 0.08 | 56 | 999.0 |
| 20260905233306 | 31 | 261 | 1.6 | 4.8 | 0.00 | 0.08 | 0.08 | 57 | 998.6 |
| 20260905232806 | 31 | 269 | 3.2 | 4.8 | 0.00 | 0.08 | 0.08 | 55 | 999.0 |
| 20260905232306 | 31 | 290 | 0.0 | 6.4 | 0.00 | 0.08 | 0.08 | 55 | 999.0 |
| 20260905231805 | 31 | 4.8 | 6.4 | 0.00 | 0.08 | 0.08 | 54 | 999.3 | |
| 20260905231306 | 31 | 300 | 4.8 | 6.4 | 0.00 | 0.08 | 0.08 | 54 | 999.0 |
| 20260905230805 | 31 | 349 | 1.6 | 8.0 | 0.00 | 0.08 | 0.08 | 53 | 999.0 |
| 20260905230306 | 32 | 296 | 4.8 | 9.7 | 0.00 | 0.08 | 0.08 | 53 | 999.0 |
| 20260905225806 | 32 | 334 | 4.8 | 9.7 | 0.00 | 0.08 | 0.08 | 52 | 999.0 |
| 20260905225306 | 32 | 359 | 4.8 | 8.0 | 0.00 | 0.08 | 0.08 | 52 | 999.0 |
| 20260905224806 | 32 | 307 | 3.2 | 9.7 | 0.00 | 0.08 | 0.08 | 51 | 999.0 |
| 20260905224306 | 32 | 359 | 4.8 | 9.7 | 0.00 | 0.08 | 0.08 | 51 | 999.0 |
| 20260905223806 | 32 | 13 | 6.4 | 11.3 | 0.00 | 0.08 | 0.08 | 50 | 999.0 |
| 20260905223306 | 32 | 312 | 6.4 | 17.7 | 0.00 | 0.08 | 0.08 | 50 | 999.0 |
| 20260905222806 | 32 | 345 | 8.0 | 17.7 | 0.00 | 0.08 | 0.08 | 50 | 999.0 |
| 20260905222307 | 32 | 2 | 16.1 | 17.7 | 0.00 | 0.08 | 0.08 | 50 | 999.0 |
| 20260905221806 | 32 | 359 | 8.0 | 14.5 | 0.00 | 0.08 | 0.08 | 50 | 999.0 |
| 20260905221306 | 32 | 336 | 9.7 | 14.5 | 0.00 | 0.08 | 0.08 | 49 | 998.6 |
| 20260905220805 | 33 | 309 | 11.3 | 14.5 | 0.00 | 0.08 | 0.08 | 48 | 999.0 |
| 20260905220305 | 33 | 7 | 9.7 | 14.5 | 0.00 | 0.08 | 0.08 | 47 | 999.0 |
| 20260905215806 | 34 | 339 | 3.2 | 11.3 | 0.00 | 0.08 | 0.08 | 47 | 999.0 |
| 20260905215306 | 33 | 253 | 4.8 | 12.9 | 0.00 | 0.08 | 0.08 | 46 | 999.0 |
| 20260905214806 | 34 | 256 | 11.3 | 14.5 | 0.00 | 0.08 | 0.08 | 46 | 999.0 |
| 20260905214306 | 33 | 250 | 8.0 | 14.5 | 0.00 | 0.08 | 0.08 | 47 | 999.0 |
| 20260905213806 | 33 | 263 | 4.8 | 12.9 | 0.00 | 0.08 | 0.08 | 47 | 999.0 |
| 20260905213306 | 33 | 242 | 8.0 | 14.5 | 0.00 | 0.08 | 0.08 | 46 | 998.6 |
| 20260905212806 | 33 | 261 | 11.3 | 14.5 | 0.00 | 0.08 | 0.08 | 46 | 999.0 |
| 20260905212306 | 33 | 287 | 4.8 | 11.3 | 0.00 | 0.08 | 0.08 | 47 | 998.6 |
| 20260905211806 | 33 | 299 | 8.0 | 16.1 | 0.00 | 0.08 | 0.08 | 46 | 998.6 |
| 20260905211305 | 33 | 272 | 8.0 | 16.1 | 0.00 | 0.08 | 0.08 | 48 | 998.6 |
| 20260905210806 | 34 | 234 | 9.7 | 14.5 | 0.00 | 0.08 | 0.08 | 46 | 999.0 |
| 20260905210305 | 33 | 302 | 4.8 | 11.3 | 0.00 | 0.08 | 0.08 | 48 | 999.0 |
| 20260905205806 | 33 | 263 | 4.8 | 11.3 | 0.00 | 0.08 | 0.08 | 48 | 998.6 |
| 20260905205306 | 33 | 263 | 4.8 | 12.9 | 0.00 | 0.08 | 0.08 | 48 | 998.6 |
| 20260905204806 | 33 | 264 | 8.0 | 12.9 | 0.00 | 0.08 | 0.08 | 47 | 998.6 |
| 20260905204306 | 33 | 316 | 9.7 | 14.5 | 0.00 | 0.08 | 0.08 | 49 | 999.0 |
| 20260905203806 | 33 | 256 | 8.0 | 14.5 | 0.00 | 0.08 | 0.08 | 48 | 999.0 |
| 20260905203306 | 33 | 298 | 3.2 | 12.9 | 0.00 | 0.08 | 0.08 | 48 | 999.0 |
| 20260905202806 | 32 | 314 | 8.0 | 16.1 | 0.00 | 0.08 | 0.08 | 50 | 999.0 |
| 20260905202306 | 32 | 273 | 9.7 | 16.1 | 0.00 | 0.08 | 0.08 | 50 | 999.3 |
| 20260905201806 | 33 | 261 | 11.3 | 14.5 | 0.00 | 0.08 | 0.08 | 49 | 999.3 |
| 20260905201306 | 33 | 246 | 9.7 | 14.5 | 0.00 | 0.08 | 0.08 | 48 | 999.3 |
| 20260905200806 | 32 | 320 | 8.0 | 14.5 | 0.00 | 0.08 | 0.08 | 48 | 999.3 |
| 20260905200306 | 33 | 297 | 3.2 | 14.5 | 0.00 | 0.08 | 0.08 | 48 | 999.7 |
| 20260905195805 | 33 | 271 | 12.9 | 14.5 | 0.00 | 0.08 | 0.08 | 48 | 999.7 |
| 20260905195307 | 32 | 262 | 4.8 | 12.9 | 0.00 | 0.08 | 0.08 | 49 | 999.7 |
| 20260905194805 | 32 | 264 | 8.0 | 16.1 | 0.00 | 0.08 | 0.08 | 49 | 999.7 |
| 20260905194305 | 32 | 250 | 4.8 | 16.1 | 0.00 | 0.08 | 0.08 | 51 | 999.7 |
| 20260905193804 | 32 | 245 | 11.3 | 16.1 | 0.00 | 0.08 | 0.08 | 51 | 999.7 |
| 20260905193304 | 32 | 250 | 4.8 | 11.3 | 0.00 | 0.08 | 0.08 | 50 | 999.7 |
| 20260905192805 | 32 | 231 | 4.8 | 17.7 | 0.00 | 0.08 | 0.08 | 50 | 999.7 |
| 20260905192306 | 32 | 291 | 4.8 | 17.7 | 0.00 | 0.08 | 0.08 | 51 | 999.7 |
| 20260905191806 | 32 | 247 | 9.7 | 14.5 | 0.00 | 0.08 | 0.08 | 51 | 1000.0 |
| 20260905191304 | 32 | 246 | 8.0 | 14.5 | 0.00 | 0.08 | 0.08 | 53 | 1000.0 |
| 20260905190805 | 32 | 219 | 8.0 | 12.9 | 0.00 | 0.08 | 0.08 | 51 | 1000.0 |
| 20260905190305 | 32 | 191 | 11.3 | 14.5 | 0.00 | 0.08 | 0.08 | 52 | 1000.0 |
| 20260905185805 | 31 | 227 | 8.0 | 14.5 | 0.00 | 0.08 | 0.08 | 52 | 1000.4 |
| 20260905185306 | 31 | 222 | 6.4 | 12.9 | 0.00 | 0.08 | 0.08 | 53 | 1000.4 |
| 20260905184805 | 32 | 192 | 8.0 | 12.9 | 0.00 | 0.08 | 0.08 | 52 | 1000.4 |
| 20260905184305 | 31 | 230 | 0.0 | 12.9 | 0.00 | 0.08 | 0.08 | 52 | 1000.7 |
| 20260905183804 | 31 | 265 | 6.4 | 12.9 | 0.00 | 0.08 | 0.08 | 52 | 1000.7 |
| 20260905183304 | 31 | 263 | 4.8 | 16.1 | 0.00 | 0.08 | 0.08 | 52 | 1001.1 |
| 20260905182805 | 31 | 209 | 1.6 | 16.1 | 0.00 | 0.08 | 0.08 | 52 | 1000.7 |
| 20260905182306 | 31 | 248 | 6.4 | 14.5 | 0.00 | 0.08 | 0.08 | 55 | 1000.7 |
| 20260905181805 | 30 | 182 | 4.8 | 17.7 | 0.00 | 0.08 | 0.08 | 56 | 1001.1 |
| 20260905181305 | 30 | 201 | 1.6 | 17.7 | 0.00 | 0.08 | 0.08 | 57 | 1001.1 |
| 20260905180805 | 30 | 267 | 11.3 | 19.3 | 0.00 | 0.08 | 0.08 | 56 | 1000.7 |
| 20260905180305 | 31 | 234 | 9.7 | 19.3 | 0.00 | 0.08 | 0.08 | 57 | 1001.1 |
| 20260905175805 | 30 | 188 | 4.8 | 17.7 | 0.00 | 0.08 | 0.08 | 58 | 1000.7 |
| 20260905175306 | 30 | 220 | 8.0 | 20.9 | 0.00 | 0.08 | 0.08 | 58 | 1001.1 |
| 20260905174805 | 30 | 198 | 6.4 | 20.9 | 0.00 | 0.08 | 0.08 | 59 | 1001.4 |
| 20260905174305 | 30 | 257 | 11.3 | 17.7 | 0.00 | 0.08 | 0.08 | 60 | 1001.1 |
| 20260905173804 | 30 | 196 | 12.9 | 17.7 | 0.00 | 0.08 | 0.08 | 61 | 1001.4 |
| 20260905173304 | 30 | 253 | 12.9 | 17.7 | 0.00 | 0.08 | 0.08 | 59 | 1001.4 |
| 20260905172805 | 30 | 205 | 11.3 | 19.3 | 0.00 | 0.08 | 0.08 | 59 | 1001.4 |
| 20260905172305 | 28 | 190 | 8.0 | 20.9 | 0.00 | 0.08 | 0.08 | 63 | 1001.4 |
| 20260905171804 | 29 | 223 | 4.8 | 20.9 | 0.00 | 0.08 | 0.08 | 62 | 1001.4 |
| 20260905171307 | 30 | 183 | 12.9 | 20.9 | 0.00 | 0.08 | 0.08 | 59 | 1001.4 |
| 20260905170805 | 30 | 209 | 9.7 | 19.3 | 0.00 | 0.08 | 0.08 | 57 | 1001.1 |
| 20260905170305 | 28 | 221 | 11.3 | 19.3 | 0.00 | 0.08 | 0.08 | 58 | 1001.4 |
| 20260905165805 | 28 | 159 | 9.7 | 16.1 | 0.00 | 0.08 | 0.08 | 59 | 1001.4 |
| 20260905165306 | 28 | 189 | 8.0 | 17.7 | 0.00 | 0.08 | 0.08 | 59 | 1001.4 |
| 20260905164804 | 28 | 223 | 8.0 | 17.7 | 0.00 | 0.08 | 0.08 | 61 | 1001.4 |
| 20260905164305 | 28 | 181 | 4.8 | 16.1 | 0.00 | 0.08 | 0.08 | 59 | 1001.4 |
| 20260905163804 | 28 | 225 | 8.0 | 16.1 | 0.00 | 0.08 | 0.08 | 60 | 1001.8 |
| 20260905163305 | 28 | 236 | 4.8 | 14.5 | 0.00 | 0.08 | 0.08 | 62 | 1001.8 |
| 20260905162804 | 27 | 172 | 8.0 | 14.5 | 0.00 | 0.08 | 0.08 | 64 | 1001.8 |
| 20260905162306 | 27 | 204 | 6.4 | 14.5 | 0.00 | 0.08 | 0.08 | 65 | 1001.8 |
| 20260905161805 | 28 | 211 | 8.0 | 14.5 | 0.00 | 0.08 | 0.08 | 65 | 1001.8 |
| 20260905161304 | 28 | 199 | 0.0 | 14.5 | 0.00 | 0.08 | 0.08 | 62 | 1001.8 |
| 20260905160805 | 28 | 231 | 4.8 | 9.7 | 0.00 | 0.08 | 0.08 | 63 | 1001.8 |
| 20260905160304 | 28 | 268 | 8.0 | 9.7 | 0.00 | 0.08 | 0.08 | 63 | 1002.1 |
| 20260905155805 | 28 | 81 | 9.7 | 12.9 | 0.00 | 0.08 | 0.08 | 64 | 1002.1 |
| 20260905155306 | 28 | 216 | 4.8 | 12.9 | 0.00 | 0.08 | 0.08 | 61 | 1001.8 |
| 20260905154804 | 28 | 213 | 6.4 | 11.3 | 0.00 | 0.08 | 0.08 | 63 | 1002.1 |
| 20260905154305 | 27 | 72 | 1.6 | 11.3 | 0.00 | 0.08 | 0.08 | 65 | 1002.1 |
| 20260905153804 | 27 | 166 | 4.8 | 11.3 | 0.00 | 0.08 | 0.08 | 65 | 1002.1 |
| 20260905153305 | 27 | 44 | 6.4 | 11.3 | 0.00 | 0.08 | 0.08 | 66 | 1002.5 |
| 20260905152805 | 26 | 121 | 4.8 | 14.5 | 0.00 | 0.08 | 0.08 | 69 | 1002.5 |
| 20260905152306 | 26 | 103 | 6.4 | 14.5 | 0.00 | 0.08 | 0.08 | 70 | 1002.1 |
| 20260905151804 | 26 | 267 | 1.6 | 9.7 | 0.00 | 0.08 | 0.08 | 70 | 1002.1 |
| 20260905151304 | 26 | 133 | 6.4 | 17.7 | 0.00 | 0.08 | 0.08 | 71 | 1002.5 |
| 20260905150803 | 26 | 99 | 6.4 | 17.7 | 0.00 | 0.08 | 0.08 | 72 | 1002.5 |
| 20260905150304 | 26 | 85 | 12.9 | 16.1 | 0.00 | 0.08 | 0.08 | 72 | 1002.5 |
| 20260905145805 | 25 | 182 | 6.4 | 12.9 | 0.00 | 0.08 | 0.08 | 74 | 1002.1 |
| 20260905145306 | 25 | 140 | 9.7 | 20.9 | 0.00 | 0.08 | 0.08 | 75 | 1002.8 |
| 20260905144804 | 25 | 31 | 4.8 | 20.9 | 0.00 | 0.08 | 0.08 | 76 | 1002.5 |
| 20260905144304 | 24 | 56 | 14.5 | 20.9 | 0.00 | 0.08 | 0.08 | 77 | 1002.5 |
| 20260905143805 | 24 | 282 | 4.8 | 20.9 | 0.00 | 0.08 | 0.08 | 79 | 1002.8 |
| 20260905143304 | 23 | 68 | 14.5 | 24.1 | 0.00 | 0.08 | 0.08 | 80 | 1002.5 |
| 20260905142805 | 23 | 106 | 0.0 | 24.1 | 0.00 | 0.08 | 0.08 | 80 | 1002.8 |
| 20260905142306 | 23 | 148 | 6.4 | 22.5 | 0.00 | 0.08 | 0.08 | 81 | 1002.8 |
| 20260905141804 | 23 | 153 | 11.3 | 22.5 | 0.00 | 0.08 | 0.08 | 82 | 1002.8 |
| 20260905141304 | 23 | 137 | 12.9 | 22.5 | 0.00 | 0.08 | 0.08 | 82 | 1002.8 |
| 20260905140805 | 23 | 224 | 4.8 | 24.1 | 0.00 | 0.08 | 0.08 | 83 | 1002.8 |
| 20260905140305 | 23 | 173 | 3.2 | 24.1 | 0.00 | 0.08 | 0.08 | 82 | 1002.8 |
| 20260905135805 | 23 | 36 | 6.4 | 20.9 | 0.00 | 0.08 | 0.08 | 81 | 1003.2 |
| 20260905135306 | 23 | 20 | 8.0 | 24.1 | 0.00 | 0.08 | 0.08 | 82 | 1003.2 |
| 20260905134804 | 23 | 57 | 12.9 | 25.7 | 0.00 | 0.08 | 0.08 | 82 | 1003.2 |
| 20260905134305 | 23 | 46 | 14.5 | 25.7 | 0.00 | 0.08 | 0.08 | 81 | 1002.8 |
| 20260905133805 | 23 | 316 | 4.8 | 24.1 | 0.00 | 0.08 | 0.08 | 81 | 1003.2 |
| 20260905133304 | 23 | 159 | 1.6 | 24.1 | 0.00 | 0.08 | 0.08 | 81 | 1003.2 |
| 20260905132805 | 23 | 79 | 8.0 | 24.1 | 0.00 | 0.08 | 0.08 | 82 | 1002.8 |
| 20260905132306 | 23 | 29 | 11.3 | 24.1 | 0.00 | 0.08 | 0.08 | 82 | 1003.5 |
| 20260905131804 | 23 | 33 | 14.5 | 24.1 | 0.00 | 0.08 | 0.08 | 83 | 1003.2 |
| 20260905131304 | 23 | 37 | 9.7 | 20.9 | 0.00 | 0.08 | 0.08 | 83 | 1003.2 |
| 20260905130804 | 23 | 42 | 4.8 | 17.7 | 0.00 | 0.08 | 0.08 | 83 | 1002.8 |
| 20260905130305 | 23 | 53 | 9.7 | 11.3 | 0.00 | 0.08 | 0.08 | 82 | 1002.5 |
| 20260905125804 | 23 | 38 | 6.4 | 9.7 | 0.00 | 0.08 | 0.08 | 82 | 1002.5 |
| 20260905125306 | 23 | 38 | 4.8 | 12.9 | 0.00 | 0.08 | 0.08 | 82 | 1002.8 |
| 20260905124805 | 23 | 9 | 4.8 | 14.5 | 0.00 | 0.08 | 0.08 | 83 | 1002.8 |
| 20260905124305 | 23 | 93 | 3.2 | 17.7 | 0.00 | 0.08 | 0.08 | 84 | 1002.5 |
| 20260905123804 | 23 | 28 | 8.0 | 17.7 | 0.00 | 0.08 | 0.08 | 85 | 1002.8 |
| 20260905123305 | 23 | 36 | 3.2 | 11.3 | 0.00 | 0.08 | 0.08 | 85 | 1002.5 |
| 20260905122805 | 23 | 40 | 4.8 | 9.7 | 0.00 | 0.08 | 0.08 | 85 | 1002.5 |
| 20260905122306 | 23 | 54 | 4.8 | 11.3 | 0.00 | 0.08 | 0.08 | 84 | 1002.1 |
| 20260905121804 | 23 | 80 | 4.8 | 19.3 | 0.00 | 0.08 | 0.08 | 84 | 1002.1 |
| 20260905121305 | 23 | 38 | 6.4 | 19.3 | 0.00 | 0.08 | 0.08 | 84 | 1002.1 |
| 20260905120804 | 24 | 29 | 11.3 | 20.9 | 0.00 | 0.08 | 0.08 | 86 | 1002.1 |
| 20260905120304 | 24 | 10 | 14.5 | 20.9 | 0.00 | 0.08 | 0.08 | 87 | 1002.5 |
| 20260905115805 | 23 | 34 | 11.3 | 24.1 | 0.00 | 0.08 | 0.08 | 89 | 1002.5 |
| 20260905115306 | 24 | 31 | 11.3 | 24.1 | 0.00 | 0.08 | 0.08 | 88 | 1002.5 |
| 20260905114804 | 23 | 21 | 4.8 | 6.4 | 0.00 | 0.10 | 0.08 | 89 | 1001.8 |
| 20260905114304 | 23 | 315 | 1.6 | 8.0 | 0.00 | 0.10 | 0.08 | 90 | 1001.8 |
| 20260905113804 | 23 | 262 | 1.6 | 8.0 | 0.00 | 0.10 | 0.08 | 90 | 1001.4 |
| 20260905113304 | 23 | 247 | 3.2 | 6.4 | 0.00 | 0.10 | 0.08 | 89 | 1001.4 |
| 20260905112804 | 23 | 303 | 3.2 | 8.0 | 0.00 | 0.10 | 0.08 | 89 | 1001.4 |
| 20260905112306 | 23 | 243 | 3.2 | 8.0 | 0.00 | 0.10 | 0.08 | 89 | 1000.7 |
| 20260905111804 | 23 | 47 | 0.0 | 8.0 | 0.00 | 0.10 | 0.08 | 89 | 1001.1 |
| 20260905111304 | 23 | 247 | 3.2 | 6.4 | 0.00 | 0.10 | 0.08 | 89 | 1001.1 |
| 20260905110804 | 23 | 205 | 3.2 | 8.0 | 0.00 | 0.10 | 0.08 | 89 | 1000.7 |
| 20260905110304 | 23 | 246 | 3.2 | 9.7 | 0.00 | 0.10 | 0.08 | 89 | 1000.7 |
| 20260905105804 | 23 | 197 | 6.4 | 12.9 | 0.00 | 0.10 | 0.08 | 88 | 1000.7 |
| 20260905105306 | 23 | 192 | 6.4 | 12.9 | 0.00 | 0.10 | 0.08 | 88 | 1000.7 |
| 20260905104804 | 23 | 202 | 8.0 | 8.0 | 0.00 | 0.10 | 0.08 | 88 | 1000.7 |
| 20260905104305 | 23 | 233 | 4.8 | 8.0 | 0.00 | 0.10 | 0.08 | 89 | 1000.7 |
| 20260905103805 | 23 | 229 | 4.8 | 8.0 | 0.00 | 0.10 | 0.08 | 89 | 1000.7 |
| 20260905103304 | 23 | 194 | 1.6 | 8.0 | 0.00 | 0.10 | 0.08 | 89 | 1000.7 |
| 20260905102804 | 23 | 228 | 3.2 | 9.7 | 0.00 | 0.10 | 0.08 | 89 | 1000.7 |
| 20260905102306 | 23 | 216 | 6.4 | 9.7 | 0.00 | 0.10 | 0.08 | 89 | 1000.7 |
| 20260905101805 | 23 | 204 | 8.0 | 9.7 | 0.00 | 0.10 | 0.08 | 89 | 1001.1 |
| 20260905101304 | 23 | 206 | 4.8 | 8.0 | 0.00 | 0.10 | 0.08 | 89 | 1000.7 |
| 20260905100804 | 23 | 194 | 3.2 | 6.4 | 0.00 | 0.10 | 0.08 | 88 | 1001.1 |
| 20260905100304 | 23 | 222 | 0.0 | 8.0 | 0.00 | 0.10 | 0.08 | 88 | 1000.7 |
| 20260905095805 | 23 | 227 | 3.2 | 8.0 | 0.00 | 0.10 | 0.08 | 88 | 1000.7 |
| 20260905095306 | 24 | 215 | 3.2 | 8.0 | 0.00 | 0.10 | 0.08 | 87 | 1000.7 |
| 20260905094804 | 24 | 199 | 4.8 | 6.4 | 0.00 | 0.10 | 0.08 | 87 | 1000.7 |
| 20260905094304 | 24 | 217 | 4.8 | 6.4 | 0.00 | 0.10 | 0.08 | 87 | 1000.4 |
| 20260905093804 | 24 | 224 | 3.2 | 6.4 | 0.00 | 0.10 | 0.08 | 86 | 1000.7 |
| 20260905093305 | 24 | 196 | 4.8 | 8.0 | 0.00 | 0.10 | 0.08 | 86 | 1000.7 |
| 20260905092805 | 24 | 186 | 4.8 | 8.0 | 0.00 | 0.10 | 0.08 | 86 | 1000.4 |
| 20260905092306 | 24 | 156 | 1.6 | 9.7 | 0.00 | 0.10 | 0.08 | 86 | 1000.4 |
| 20260905091804 | 25 | 205 | 6.4 | 9.7 | 0.00 | 0.10 | 0.08 | 86 | 1000.4 |
| 20260905091305 | 24 | 166 | 3.2 | 8.0 | 0.00 | 0.10 | 0.08 | 86 | 1000.4 |
| 20260905090804 | 24 | 195 | 3.2 | 9.7 | 0.00 | 0.10 | 0.08 | 86 | 1000.0 |
| 20260905090304 | 24 | 223 | 6.4 | 9.7 | 0.03 | 0.10 | 0.08 | 87 | 1000.4 |
| 20260905085805 | 24 | 203 | 3.2 | 8.0 | 0.03 | 0.10 | 0.08 | 87 | 1000.0 |
| 20260905085306 | 24 | 178 | 4.8 | 8.0 | 0.03 | 0.10 | 0.08 | 87 | 1000.4 |
| 20260905084804 | 24 | 184 | 3.2 | 6.4 | 0.03 | 0.10 | 0.08 | 88 | 1000.4 |
| 20260905084305 | 24 | 218 | 3.2 | 8.0 | 0.00 | 0.10 | 0.08 | 88 | 1000.4 |
| 20260905083804 | 24 | 218 | 1.6 | 8.0 | 0.00 | 0.10 | 0.08 | 87 | 1000.4 |
| 20260905083304 | 25 | 247 | 3.2 | 9.7 | 0.00 | 0.10 | 0.08 | 85 | 1000.4 |
| 20260905082804 | 25 | 217 | 4.8 | 9.7 | 0.00 | 0.10 | 0.08 | 84 | 1000.4 |
| 20260905082307 | 25 | 197 | 6.4 | 9.7 | 0.00 | 0.10 | 0.08 | 85 | 1000.4 |
| 20260905081805 | 25 | 204 | 8.0 | 9.7 | 0.00 | 0.10 | 0.08 | 85 | 1000.0 |
| 20260905081304 | 25 | 182 | 4.8 | 9.7 | 0.00 | 0.10 | 0.08 | 84 | 1000.0 |
| 20260905080804 | 25 | 218 | 4.8 | 8.0 | 0.00 | 0.10 | 0.08 | 84 | 1000.4 |
| 20260905080303 | 25 | 213 | 4.8 | 11.3 | 0.00 | 0.10 | 0.08 | 84 | 1000.4 |
| 20260905075804 | 25 | 200 | 3.2 | 11.3 | 0.00 | 0.10 | 0.08 | 85 | 1000.4 |
| 20260905075306 | 25 | 250 | 4.8 | 8.0 | 0.00 | 0.10 | 0.08 | 85 | 1000.7 |
| 20260905074804 | 25 | 230 | 3.2 | 8.0 | 0.00 | 0.10 | 0.08 | 84 | 1000.7 |
| 20260905074304 | 25 | 213 | 6.4 | 8.0 | 0.00 | 0.10 | 0.08 | 83 | 1000.4 |
| 20260905073805 | 25 | 185 | 3.2 | 11.3 | 0.00 | 0.10 | 0.08 | 83 | 1000.7 |
| 20260905073304 | 25 | 173 | 8.0 | 11.3 | 0.00 | 0.13 | 0.08 | 84 | 1000.7 |
| 20260905072804 | 25 | 219 | 3.2 | 11.3 | 0.00 | 0.13 | 0.08 | 84 | 1000.7 |
| 20260905072306 | 25 | 175 | 4.8 | 11.3 | 0.00 | 0.13 | 0.08 | 84 | 1000.7 |
| 20260905071804 | 25 | 198 | 6.4 | 11.3 | 0.00 | 0.13 | 0.08 | 83 | 1000.7 |
| 20260905071304 | 25 | 202 | 3.2 | 11.3 | 0.00 | 0.13 | 0.08 | 82 | 1001.1 |
| 20260905070805 | 25 | 204 | 8.0 | 12.9 | 0.00 | 0.13 | 0.08 | 82 | 1000.7 |
| 20260905070304 | 25 | 218 | 0.0 | 12.9 | 0.00 | 0.13 | 0.08 | 82 | 1001.1 |
| 20260905065804 | 25 | 141 | 1.6 | 12.9 | 0.00 | 0.13 | 0.08 | 83 | 1001.1 |
| 20260905065306 | 25 | 175 | 4.8 | 12.9 | 0.00 | 0.13 | 0.08 | 83 | 1001.1 |
| 20260905064804 | 25 | 184 | 4.8 | 9.7 | 0.00 | 0.13 | 0.08 | 82 | 1001.1 |
| 20260905064305 | 25 | 210 | 6.4 | 9.7 | 0.00 | 0.13 | 0.08 | 83 | 1001.1 |
| 20260905063804 | 26 | 162 | 3.2 | 6.4 | 0.00 | 0.13 | 0.08 | 83 | 1001.1 |
| 20260905063304 | 26 | 85 | 3.2 | 8.0 | 0.00 | 0.13 | 0.08 | 83 | 1001.4 |
| 20260905062804 | 25 | 38 | 4.8 | 8.0 | 0.00 | 0.13 | 0.08 | 82 | 1001.4 |
| 20260905062306 | 26 | 52 | 3.2 | 8.0 | 0.00 | 0.13 | 0.08 | 82 | 1001.4 |
| 20260905061804 | 26 | 245 | 4.8 | 8.0 | 0.00 | 0.13 | 0.08 | 81 | 1001.4 |
| 20260905061304 | 26 | 95 | 1.6 | 11.3 | 0.00 | 0.13 | 0.08 | 81 | 1001.8 |
| 20260905060804 | 26 | 184 | 1.6 | 11.3 | 0.00 | 0.13 | 0.08 | 82 | 1001.8 |
| 20260905060305 | 26 | 204 | 3.2 | 8.0 | 0.00 | 0.13 | 0.08 | 81 | 1001.8 |
| 20260905055805 | 26 | 263 | 3.2 | 8.0 | 0.00 | 0.13 | 0.08 | 81 | 1001.8 |
| 20260905055306 | 26 | 187 | 6.4 | 8.0 | 0.00 | 0.13 | 0.05 | 83 | 1001.8 |
| 20260905054804 | 26 | 118 | 4.8 | 6.4 | 0.00 | 0.13 | 0.05 | 83 | 1001.4 |
| 20260905054304 | 26 | 63 | 4.8 | 6.4 | 0.00 | 0.13 | 0.05 | 83 | 1001.8 |
| 20260905053804 | 26 | 6 | 1.6 | 4.8 | 0.00 | 0.13 | 0.05 | 83 | 1001.8 |
| 20260905053304 | 26 | 110 | 0.0 | 4.8 | 0.00 | 0.13 | 0.05 | 84 | 1001.8 |
| 20260905052804 | 25 | 196 | 1.6 | 4.8 | 0.00 | 0.13 | 0.05 | 84 | 1001.8 |
| 20260905052306 | 25 | 121 | 1.6 | 6.4 | 0.00 | 0.13 | 0.05 | 85 | 1001.8 |
| 20260905051804 | 25 | 89 | 1.6 | 6.4 | 0.00 | 0.13 | 0.05 | 85 | 1002.1 |
| 20260905051305 | 25 | 70 | 0.0 | 4.8 | 0.00 | 0.13 | 0.05 | 85 | 1002.1 |
| 20260905050805 | 25 | 48 | 1.6 | 12.9 | 0.00 | 0.13 | 0.05 | 85 | 1001.8 |
| 20260905050304 | 25 | 75 | 1.6 | 12.9 | 0.00 | 0.13 | 0.05 | 85 | 1002.1 |
| 20260905045804 | 27 | 48 | 8.0 | 12.9 | 0.00 | 0.13 | 0.05 | 79 | 1002.1 |
| 20260905045306 | 27 | 19 | 3.2 | 4.8 | 0.03 | 0.13 | 0.05 | 76 | 1002.1 |
| 20260905044804 | 27 | 181 | 3.2 | 6.4 | 0.03 | 0.13 | 0.05 | 76 | 1001.8 |
| 20260905044304 | 27 | 211 | 4.8 | 6.4 | 0.03 | 0.13 | 0.05 | 76 | 1001.8 |
| 20260905043804 | 27 | 218 | 3.2 | 6.4 | 0.03 | 0.13 | 0.05 | 76 | 1001.8 |
| 20260905043303 | 27 | 220 | 3.2 | 8.0 | 0.03 | 0.13 | 0.05 | 76 | 1001.8 |
| 20260905042804 | 27 | 214 | 4.8 | 8.0 | 0.03 | 0.13 | 0.05 | 76 | 1001.8 |
| 20260905042307 | 27 | 216 | 4.8 | 8.0 | 0.03 | 0.13 | 0.05 | 76 | 1001.8 |
| 20260905041804 | 27 | 212 | 6.4 | 8.0 | 0.03 | 0.13 | 0.05 | 77 | 1001.8 |
| 20260905041305 | 26 | 207 | 6.4 | 8.0 | 0.03 | 0.13 | 0.05 | 81 | 1001.8 |
| 20260905040804 | 26 | 226 | 4.8 | 8.0 | 0.03 | 0.13 | 0.05 | 81 | 1001.8 |